Hourly Weather Al Jazirah al Hamra

Today, 26 November, Thursday

Time Temperature Precipitation Wind Pressure Humidity
00:00 +23°C° 0 mm 4 mps 762 mmHg 47%
01:00 +23°C° 0 mm 4 mps 762 mmHg 47%
02:00 +23°C° 0 mm 4 mps 762 mmHg 50%
03:00 +23°C° 0 mm 4 mps 762 mmHg 52%
04:00 +22°C° 0 mm 4 mps 761 mmHg 58%
05:00 +22°C° 0 mm 4 mps 762 mmHg 58%
06:00 +22°C° 0 mm 4 mps 763 mmHg 57%
07:00 +22°C° 0 mm 4 mps 763 mmHg 57%
08:00 +25°C° 0 mm 4 mps 764 mmHg 51%
09:00 +27°C° 0 mm 4 mps 764 mmHg 44%
10:00 +28°C° 0 mm 4 mps 764 mmHg 37%
11:00 +29°C° 0 mm 4 mps 764 mmHg 36%
12:00 +30°C° 0 mm 3 mps 763 mmHg 35%
13:00 +30°C° 0 mm 3 mps 763 mmHg 34%
14:00 +30°C° 0 mm 4 mps 763 mmHg 35%
15:00 +29°C° 0 mm 4 mps 763 mmHg 37%
16:00 +29°C° 0 mm 5 mps 762 mmHg 39%
17:00 +28°C° 0 mm 5 mps 763 mmHg 42%
18:00 +27°C° 0 mm 5 mps 763 mmHg 46%
19:00 +26°C° 0 mm 5 mps 763 mmHg 50%
20:00 +26°C° 0 mm 4 mps 763 mmHg 53%
21:00 +25°C° 0 mm 4 mps 763 mmHg 57%
22:00 +25°C° 0 mm 4 mps 764 mmHg 60%
23:00 +23°C° 0 mm 5 mps 764 mmHg 59%

Tomorrow, 27 November, Friday

Time Temperature Precipitation Wind Pressure Humidity
00:00 +23°C° 0 mm 5 mps 763 mmHg 57%
01:00 +23°C° 0 mm 5 mps 763 mmHg 56%
02:00 +23°C° 0 mm 6 mps 763 mmHg 54%
03:00 +23°C° 0 mm 6 mps 763 mmHg 52%
04:00 +22°C° 0 mm 6 mps 763 mmHg 50%
05:00 +22°C° 0 mm 6 mps 764 mmHg 49%
06:00 +22°C° 0 mm 6 mps 764 mmHg 48%
07:00 +22°C° 0 mm 6 mps 765 mmHg 47%
08:00 +24°C° 0 mm 6 mps 765 mmHg 43%
09:00 +26°C° 0 mm 6 mps 766 mmHg 38%
10:00 +28°C° 0 mm 5 mps 766 mmHg 34%
11:00 +28°C° 0 mm 5 mps 765 mmHg 34%
12:00 +28°C° 0 mm 4 mps 765 mmHg 34%
13:00 +29°C° 0 mm 4 mps 765 mmHg 34%
14:00 +29°C° 0 mm 4 mps 764 mmHg 35%
15:00 +28°C° 0 mm 4 mps 764 mmHg 37%
16:00 +28°C° 0 mm 4 mps 764 mmHg 38%
17:00 +27°C° 0 mm 4 mps 764 mmHg 42%
18:00 +26°C° 0 mm 4 mps 764 mmHg 47%
19:00 +25°C° 0 mm 4 mps 765 mmHg 51%
20:00 +25°C° 0 mm 4 mps 765 mmHg 52%
21:00 +25°C° 0 mm 4 mps 765 mmHg 54%
22:00 +25°C° 0 mm 4 mps 765 mmHg 55%
23:00 +25°C° 0 mm 4 mps 765 mmHg 59%

Day after tomorrow, 28 November, Saturday

Time Temperature Precipitation Wind Pressure Humidity
00:00 +25°C° 0 mm 4 mps 765 mmHg 64%
01:00 +23°C° 0 mm 4 mps 765 mmHg 68%
02:00 +23°C° 0 mm 4 mps 764 mmHg 67%
03:00 +23°C° 0 mm 4 mps 764 mmHg 66%
04:00 +23°C° 0 mm 4 mps 764 mmHg 65%
05:00 +23°C° 0 mm 4 mps 764 mmHg 65%
06:00 +23°C° 0 mm 4 mps 765 mmHg 65%
07:00 +23°C° 0 mm 4 mps 765 mmHg 65%
08:00 +25°C° 0 mm 4 mps 765 mmHg 59%
09:00 +26°C° 0 mm 4 mps 766 mmHg 53%
10:00 +27°C° 0 mm 4 mps 766 mmHg 46%
11:00 +28°C° 0 mm 4 mps 766 mmHg 43%
12:00 +29°C° 0 mm 4 mps 765 mmHg 40%
13:00 +29°C° 0 mm 4 mps 764 mmHg 37%
14:00 +29°C° 0 mm 4 mps 764 mmHg 39%
15:00 +29°C° 0 mm 4 mps 763 mmHg 40%
16:00 +28°C° 0 mm 4 mps 763 mmHg 41%
17:00 +27°C° 0 mm 4 mps 763 mmHg 46%
18:00 +26°C° 0 mm 3 mps 763 mmHg 51%
19:00 +25°C° 0 mm 3 mps 764 mmHg 56%
20:00 +25°C° 0 mm 3 mps 764 mmHg 56%
21:00 +24°C° 0 mm 3 mps 764 mmHg 56%
22:00 +24°C° 0 mm 3 mps 764 mmHg 56%
23:00 +24°C° 0 mm 3 mps 763 mmHg 56%

29 November, Sunday

Time Temperature Precipitation Wind Pressure Humidity
00:00 +24°C° 0 mm 3 mps 763 mmHg 56%
01:00 +22°C° 0 mm 3 mps 763 mmHg 56%
02:00 +22°C° 0 mm 4 mps 763 mmHg 57%
03:00 +22°C° 0 mm 4 mps 762 mmHg 57%
04:00 +22°C° 0 mm 4 mps 762 mmHg 57%
05:00 +22°C° 0 mm 4 mps 762 mmHg 58%
06:00 +21°C° 0 mm 3 mps 762 mmHg 59%
07:00 +21°C° 0 mm 3 mps 763 mmHg 61%
08:00 +24°C° 0 mm 3 mps 763 mmHg 55%
09:00 +25°C° 0 mm 3 mps 763 mmHg 50%
10:00 +27°C° 0 mm 2 mps 764 mmHg 45%
11:00 +28°C° 0 mm 2 mps 763 mmHg 44%
12:00 +28°C° 0 mm 2 mps 762 mmHg 42%
13:00 +29°C° 0 mm 2 mps 762 mmHg 41%
14:00 +28°C° 0 mm 3 mps 762 mmHg 44%
15:00 +28°C° 0 mm 3 mps 761 mmHg 46%
16:00 +28°C° 0 mm 4 mps 761 mmHg 49%
17:00 +27°C° 0 mm 3 mps 761 mmHg 51%
18:00 +26°C° 0 mm 3 mps 761 mmHg 53%
19:00 +26°C° 0 mm 2 mps 761 mmHg 55%
20:00 +25°C° 0 mm 2 mps 761 mmHg 59%
21:00 +25°C° 0 mm 1 mps 762 mmHg 63%
22:00 +24°C° 0 mm 1 mps 762 mmHg 66%
23:00 +24°C° 0 mm 1 mps 761 mmHg 68%

30 November, Monday

Time Temperature Precipitation Wind Pressure Humidity
00:00 +23°C° 0 mm 1 mps 761 mmHg 71%
01:00 +23°C° 0 mm 1 mps 761 mmHg 73%
02:00 +23°C° 0 mm 1 mps 761 mmHg 72%
03:00 +23°C° 0 mm 1 mps 761 mmHg 72%
04:00 +22°C° 0 mm 1 mps 760 mmHg 71%
05:00 +22°C° 0 mm 1 mps 761 mmHg 72%
06:00 +21°C° 0 mm 1 mps 761 mmHg 73%
07:00 +21°C° 0 mm 1 mps 761 mmHg 74%
08:00 +23°C° 0 mm 1 mps 762 mmHg 63%
09:00 +26°C° 0 mm 1 mps 762 mmHg 51%
10:00 +28°C° 0 mm 1 mps 762 mmHg 40%
11:00 +28°C° 0 mm 2 mps 762 mmHg 39%
12:00 +29°C° 0 mm 2 mps 761 mmHg 38%
13:00 +30°C° 0 mm 3 mps 761 mmHg 37%
14:00 +29°C° 0 mm 3 mps 761 mmHg 40%
15:00 +29°C° 0 mm 3 mps 760 mmHg 43%
16:00 +28°C° 0 mm 3 mps 760 mmHg 46%
17:00 +27°C° 0 mm 3 mps 760 mmHg 50%
18:00 +26°C° 0 mm 2 mps 760 mmHg 55%
19:00 +25°C° 0 mm 1 mps 761 mmHg 60%
20:00 +25°C° 0 mm 1 mps 761 mmHg 60%
21:00 +24°C° 0 mm 1 mps 761 mmHg 60%
22:00 +24°C° 0 mm 1 mps 761 mmHg 60%
23:00 +23°C° 0 mm 1 mps 761 mmHg 61%

1 December, Tuesday

Time Temperature Precipitation Wind Pressure Humidity
00:00 +21°C° 0 mm 0 mps 761 mmHg 63%
01:00 +20°C° 0 mm 0 mps 760 mmHg 65%
02:00 +22°C° 0 mm 1 mps 760 mmHg 66%
03:00 +22°C° 0 mm 1 mps 760 mmHg 68%
04:00 +22°C° 0 mm 1 mps 760 mmHg 70%
05:00 +21°C° 0 mm 2 mps 760 mmHg 70%
06:00 +21°C° 0 mm 2 mps 761 mmHg 70%
07:00 +20°C° 0 mm 2 mps 761 mmHg 70%
08:00 +23°C° 0 mm 2 mps 761 mmHg 62%
09:00 +25°C° 0 mm 2 mps 762 mmHg 54%
10:00 +27°C° 0 mm 2 mps 762 mmHg 46%
11:00 +28°C° 0 mm 2 mps 762 mmHg 43%
12:00 +29°C° 0 mm 2 mps 761 mmHg 41%
13:00 +30°C° 0 mm 2 mps 760 mmHg 38%
14:00 +29°C° 0 mm 2 mps 760 mmHg 42%
15:00 +29°C° 0 mm 2 mps 760 mmHg 46%
16:00 +29°C° 0 mm 3 mps 760 mmHg 50%
17:00 +28°C° 0 mm 2 mps 760 mmHg 55%
18:00 +27°C° 0 mm 2 mps 760 mmHg 61%
19:00 +26°C° 0 mm 1 mps 761 mmHg 66%
20:00 +25°C° 0 mm 1 mps 761 mmHg 66%
21:00 +23°C° 0 mm 0 mps 761 mmHg 66%
22:00 +22°C° 0 mm 0 mps 761 mmHg 66%
23:00 +22°C° 0 mm 0 mps 761 mmHg 67%
Show more